This is the latest recevied weather packets stored in our database for station/object SM6LNJ-10. If no packets are shown the sender has not sent any weather packets the latest 10 day(s).
| Time | Temp. | Humidity | Pressure | Rain* | Wind** | Luminosity | Snow |
|---|---|---|---|---|---|---|---|
| 1788324352 | 25° C | 55% | 1009 hPa | - | - | - | - |
| 1788322551 | 24.44° C | 54% | 1009 hPa | - | - | - | - |
| 1788321650 | 25° C | 53% | 1009 hPa | - | - | - | - |
| 1788300031 | 25° C | 50% | 1010.2 hPa | - | - | - | - |
| 1788299130 | 25° C | 50% | 1010.2 hPa | - | - | - | - |
| 1788298229 | 25.56° C | 49% | 1010.1 hPa | - | - | - | - |
| 1788295527 | 26.67° C | 48% | 1009.9 hPa | - | - | - | - |
| 1788294626 | 26.67° C | 48% | 1009.9 hPa | - | - | - | - |
| 1788293725 | 26.67° C | 47% | 1009.9 hPa | - | - | - | - |
| 1788287419 | 27.78° C | 47% | 1009.9 hPa | - | - | - | - |
| 1788286518 | 27.78° C | 46% | 1009.9 hPa | - | - | - | - |
| 1788285618 | 27.78° C | 47% | 1009.7 hPa | - | - | - | - |
| 1788284717 | 28.33° C | 46% | 1009.7 hPa | - | - | - | - |
| 1788283816 | 28.33° C | 46% | 1009.7 hPa | - | - | - | - |
| 1788282915 | 28.33° C | 45% | 1009.5 hPa | - | - | - | - |
| 1788280213 | 28.89° C | 45% | 1009.5 hPa | - | - | - | - |
| 1788279312 | 28.89° C | 45% | 1009.5 hPa | - | - | - | - |
| 1788276610 | 28.89° C | 45% | 1009.3 hPa | - | - | - | - |
| 1788273006 | 28.89° C | 45% | 1009.2 hPa | - | - | - | - |
| 1788272106 | 28.33° C | 45% | 1009.2 hPa | - | - | - | - |
| 1788271205 | 28.33° C | 46% | 1009.1 hPa | - | - | - | - |
| 1788270304 | 28.33° C | 46% | 1009.2 hPa | - | - | - | - |
| 1788269403 | 28.33° C | 46% | 1009.3 hPa | - | - | - | - |
| 1788268502 | 28.33° C | 47% | 1009.3 hPa | - | - | - | - |
| 1788267601 | 27.78° C | 46% | 1009.4 hPa | - | - | - | - |
* Rain since midnight (hover to see other rain measurements)
** Current wind speed in m/s (hover to see current wind gust speed)